Location: Aurora Center
(43.5271°N, 98.5894°W)
Time: 07:58:24
(UTC-05:00)

Explorer 7 - All Passes

Search period start: 19 July 2024 00:00
Search period end: 29 July 2024 00:00
Orbit: 465 x 619 km, 50.3° (Epoch: 18 July)

Date Brightness Start Highest point End Pass type
(mag) Time Alt. Az. Time Alt. Az. Time Alt. Az.
19 Jul - 01:24:28 10° SSW 01:28:42 38° SE 01:32:56 10° ENE visible
19 Jul - 03:03:49 10° WSW 03:08:20 58° NNW 03:12:48 10° ENE visible
19 Jul - 04:44:29 10° WNW 04:48:39 34° N 04:52:42 10° ENE visible
19 Jul - 06:24:41 10° WNW 06:29:02 47° NNE 06:33:12 10° E daylight
19 Jul - 08:04:32 10° WNW 08:08:48 50° SW 08:12:50 10° SE daylight
20 Jul - 01:16:04 10° SW 01:20:26 48° SE 01:24:49 10° ENE visible
20 Jul - 02:55:44 10° W 03:00:11 51° NNW 03:04:36 10° ENE visible
20 Jul - 04:36:24 10° WNW 04:40:33 34° N 04:44:37 10° ENE visible
20 Jul - 06:16:28 10° WNW 06:20:53 54° NNE 06:25:07 10° E daylight
20 Jul - 07:56:24 10° WNW 08:00:32 40° SW 08:04:27 10° SSE daylight
20 Jul - 23:31:31 10° SSE 23:33:11 12° SE 23:34:51 10° ESE night (unlit)
21 Jul - 01:07:41 10° SW 01:12:09 60° SE 01:16:39 10° ENE visible
21 Jul - 02:47:37 10° W 02:52:01 45° NNW 02:56:23 10° ENE visible
21 Jul - 04:28:15 10° WNW 04:32:26 34° N 04:36:31 10° ENE visible
21 Jul - 06:08:14 10° WNW 06:12:42 63° NNE 06:16:59 10° ESE daylight
21 Jul - 07:48:18 10° WNW 07:52:12 32° SW 07:55:57 10° SSE daylight
21 Jul - 23:22:06 10° SSE 23:24:45 15° SE 23:27:27 10° E night (unlit)
22 Jul - 00:59:20 10° SW 01:03:52 74° SSE 01:08:25 10° ENE visible
22 Jul - 02:39:30 10° W 02:43:51 41° NNW 02:48:09 10° ENE visible
22 Jul - 04:20:04 10° WNW 04:24:17 35° N 04:28:23 10° ENE visible
22 Jul - 05:59:58 10° WNW 06:04:29 74° NNE 06:08:48 10° ESE daylight
22 Jul - 07:40:13 10° W 07:43:50 25° SW 07:47:19 10° S daylight
22 Jul - 23:13:05 10° S 23:16:20 20° SE 23:19:37 10° E visible
23 Jul - 00:51:01 10° WSW 00:55:33 88° SSE 01:00:08 10° ENE visible
23 Jul - 02:31:22 10° W 02:35:39 38° N 02:39:54 10° ENE visible
23 Jul - 04:11:50 10° WNW 04:16:06 37° N 04:20:15 10° ENE visible
23 Jul - 05:51:40 10° WNW 05:56:12 88° NNE 06:00:32 10° ESE daylight
23 Jul - 07:32:12 10° W 07:35:24 20° SW 07:38:31 10° S daylight
23 Jul - 23:04:14 10° S 23:07:53 25° SE 23:11:35 10° E visible
24 Jul - 00:42:43 10° WSW 00:47:15 78° NNW 00:51:50 10° ENE visible
24 Jul - 02:23:11 10° WNW 02:27:25 36° N 02:31:39 10° ENE visible
24 Jul - 04:03:33 10° WNW 04:07:52 40° NNE 04:12:04 10° E visible
24 Jul - 05:43:21 10° WNW 05:47:52 77° SSW 05:52:12 10° SE visible
24 Jul - 07:24:19 10° W 07:26:56 16° SW 07:29:30 10° SSW daylight
24 Jul - 22:55:30 10° SSW 22:59:26 31° SE 23:03:26 10° ENE visible
25 Jul - 00:34:26 10° WSW 00:38:56 66° NNW 00:43:29 10° ENE visible
25 Jul - 02:14:58 10° WNW 02:19:11 35° N 02:23:22 10° ENE visible
25 Jul - 03:55:13 10° WNW 03:59:36 44° NNE 04:03:52 10° E visible
25 Jul - 05:35:02 10° WNW 05:39:29 63° SW 05:43:47 10° SE visible
25 Jul - 07:16:45 10° WSW 07:18:25 12° SW 07:20:04 10° SSW daylight
25 Jul - 22:46:50 10° SSW 22:50:58 39° SE 22:55:12 10° ENE visible
26 Jul - 00:26:08 10° WSW 00:30:35 57° NNW 00:35:06 10° ENE visible
26 Jul - 02:06:43 10° WNW 02:10:54 34° N 02:15:04 10° ENE visible
26 Jul - 03:46:51 10° WNW 03:51:18 49° NNE 03:55:38 10° E visible
26 Jul - 05:26:41 10° WNW 05:31:04 50° SW 05:35:17 10° SE visible
26 Jul - 22:38:13 10° SW 22:42:29 49° SE 22:46:52 10° ENE visible
27 Jul - 00:17:50 10° W 00:22:14 50° NNW 00:26:42 10° ENE visible
27 Jul - 01:58:25 10° WNW 02:02:37 34° N 02:06:46 10° ENE visible
27 Jul - 03:38:26 10° WNW 03:42:56 55° NNE 03:47:20 10° E visible
27 Jul - 05:18:20 10° WNW 05:22:35 40° SW 05:26:41 10° SSE visible
27 Jul - 20:53:34 10° SSE 20:55:05 12° SE 20:56:37 10° ESE daylight
27 Jul - 22:29:39 10° SW 22:34:00 60° SE 22:38:29 10° ENE visible
28 Jul - 00:09:32 10° W 00:13:52 45° NNW 00:18:16 10° ENE visible
28 Jul - 01:50:05 10° WNW 01:54:16 35° N 01:58:27 10° ENE visible
28 Jul - 03:30:00 10° WNW 03:34:32 64° NNE 03:38:59 10° ESE visible
28 Jul - 05:10:01 10° WNW 05:14:03 32° SW 05:17:57 10° SSE visible
28 Jul - 20:43:56 10° SSE 20:46:27 15° SE 20:49:01 10° E daylight
28 Jul - 22:21:06 10° SW 22:25:30 74° SSE 22:30:03 10° ENE visible
